Погода в Тарсалаке

Украина / Запорожская область     47°10′19″N   35°14′44″E
темп.,
°C
ветер,
м/с
пор.,
м/с
влажн.,
%
обл.,
%
осадки,
мм/ч
давл.,
гПа
погр.,
м
22 апреля, чт
чт2200:00+8юз38915 0.0 1019158
03:00+7юз33925 0.0 102056
06:00+6ююз33925 0.0 102138
09:00+11ююз33735 0.0 1022483
12:00+15ююз33555 0.1 10221433
15:00+17юз3344100 0.6 10212169
18:00+12ю6972100 0.6 1021267
21:00+9ю488518 0.7 1022141
23 апреля, пт
пт2300:00+8юз37882 0.0 1022120
03:00+7ююз35910 0.0 102284
06:00+7ю36893 0.0 1022104
09:00+13ююз586534 0.0 1021591
12:00+16ююз784953 0.0 10201443
15:00+17ю684424 0.0 10181940
18:00+15ю7957100 0.0 1017720
21:00+11ююз4982100 0.4 1017262
24 апреля, сб
сб2400:00+10зюз3778100 0.0 1016261
03:00+9зсз5890100 0.2 1016532
06:00+7сз588554 0.8 1017565
09:00+9зсз57680 0.8 1018901
12:00+13зсз710445 0.0 10192137
15:00+13зсз91138100 0.0 10182721
18:00+10зсз812543 0.1 10201720
21:00+6сз37525 0.1 1022135
25 апреля, вс
вс2500:00+5зсз345912 0.0 102263
03:00+4зсз356511 0.0 102369
06:00+3зсз227249 0.0 102331
09:00+8зсз345124 0.0 1023884
12:00+11сз3337100 0.0 10221688
15:00+12ссз333638 0.0 10211724
18:00+12с2239100 0.0 1020956
21:00+7ююв4556100 0.0 102078
26 апреля, пн
пн2600:00+5юз37673 0.0 1020126
03:00+5зюз367024 0.0 1019106
06:00+4з3466100 0.0 101868
09:00+10зюз585387 0.0 1018770
12:00+7сз6784100 0.1 1019763
15:00+12зсз58419 0.1 10182072
18:00+11зсз48424 0.0 10182008
21:00+7зюз455683 0.0 101883